Weather Roundup
Issued by NWS

Home | Current Version | Previous Version | Graphics & Text | Print | Product List | Glossary Off
Versions: 1 2 3 4 5 6 7 8 9 10 11 12 13 14 15 16 17 18 19 20 21 22 23 24 25 26 27 28 29 30 31 32 33 34 35 36 37 38 39 40 41 42 43 44 45 46 47 48 49 50

000
NZUS93 KARX 240910
HRRWXR

CURRENT HOURLY OBSERVATIONS ACROSS
MUCH OF THE UPPER MISSISSIPPI VALLEY
NATIONAL WEATHER SERVICE LA CROSSE WI
400 AM CDT SUN JUL 24 2016


...SOUTHEAST MINNESOTA...


CITY           SKY/WX    TMP DP  RH WIND       PRES   REMARKS
ROCHESTER      CLOUDY    73  73 100 S7        29.80F FOG
ROCHESTER/MAYO FAIR      73  74 100 S8        29.80S
WINONA         CLOUDY    73  72  94 CALM      29.78F
AUSTIN         CLOUDY    73  72  94 S5        29.80F FOG
ALBERT LEA     MOCLDY    75  75 100 CALM      29.81R FOG
DODGE CENTER   CLOUDY    73  72  94 SW8       29.80F FOG
PRESTON        CLEAR     73  72  94 SW9       29.82S
OWATONNA       PTCLDY    75  73  94 S8        29.78S FOG
FARIBAULT      CLOUDY    75  73  94 S6        29.77F FOG
$$

...ELSEWHERE IN MINNESOTA...


CITY           SKY/WX    TMP DP  RH WIND       PRES   REMARKS
MINNEAPOLIS    CLOUDY    77  74  90 NW9       29.77R
INTNL FALLS    CLOUDY    68  65  90 SW5       29.69F
DULUTH         CLOUDY    68  67  96 NW5       29.76R
RED WING       CLOUDY    75  73  94 CALM      29.74F
REDWOOD FALLS  CLEAR     74  68  81 NW12G18   29.82R
MANKATO        MOCLDY    75  72  88 SW5       29.77F
WORTHINGTON    CLEAR     72  68  87 NW10      29.89R
FAIRMONT       CLEAR     77  36  22 NW14      29.81R
$$

...SOUTHWEST WISCONSIN...


CITY           SKY/WX    TMP DP  RH WIND       PRES   REMARKS
LA CROSSE      CLOUDY    76  72  87 SE6       29.79S
PRAIRIE DU CHI CLEAR     78  75  89 SE3       29.81S
BOSCOBEL       CLOUDY    77  74  90 CALM      29.83S
LONE ROCK      CLOUDY    74  71  91 CALM      29.84F
PLATTEVILLE    CLEAR     73  73 100 S8        29.87S
FORT MC COY    CLOUDY    73  72  96 SW3       29.82S
CAMP DOUGLAS   CLOUDY    73  72  95 VRB5      29.82S
MAUSTON-NEW LI CLOUDY    73  72  96 S7        29.82F
VIROQUA        CLOUDY    73  73 100 S7        29.84F
WIS DELLS      CLOUDY    73  70  91 S10       29.84F
$$

...ELSEWHERE IN WISCONSIN...


CITY           SKY/WX    TMP DP  RH WIND       PRES   REMARKS
MILWAUKEE      CLOUDY    73  69  87 S12       29.86F
MADISON        CLEAR     72  69  90 S8        29.85F
GREEN BAY      CLOUDY    72  72 100 S10       29.84F
EAU CLAIRE     CLOUDY    71  70  96 NE3       29.78S
BLACK RVR FLS  CLOUDY    70  70 100 CALM      29.80F
MEDFORD        CLOUDY    68  68 100 S5        29.83F
WAUSAU         CLOUDY    70  69  97 S9        29.83R
WIS RAPIDS     CLOUDY    71  68  90 CALM      29.85S
MARSHFIELD     CLOUDY    71  68  90 S5        29.83S
RICE LAKE      TSTM      68  66  93 N9G23     29.87R
$$

...NORTHEAST IOWA...


CITY           SKY/WX    TMP DP  RH WIND       PRES   REMARKS
WATERLOO       CLEAR     77  75  93 S8        29.80F
DUBUQUE        CLOUDY    74  73  97 S12       29.87S
DECORAH        CLOUDY    75  75 100 SW6       29.82R
MASON CITY     CLEAR     78  74  87 SW10      29.83R
CHARLES CITY   MOCLDY    77  77 100 SW6       29.82S
OELWEIN        CLOUDY    77  75  94 S9        29.84S
$$

...ELSEWHERE IN IOWA...


CITY           SKY/WX    TMP DP  RH WIND       PRES   REMARKS
DES MOINES     PTCLDY    80  75  84 S7        29.82S
IOWA CITY      CLEAR     80  78  94 S10       29.86S
FORT DODGE     CLEAR     75  73  94 S5        29.83S
MARSHALLTOWN   MOCLDY    80  76  87 S10       29.82F
CEDAR RAPIDS   CLOUDY    80  80 100 S9        29.84S
$$

...NORTHERN ILLINOIS...


CITY           SKY/WX    TMP DP  RH WIND       PRES   REMARKS
CHICAGO-OHARE  CLOUDY    71  70  96 S9        29.90F
CHICAGO-MIDWAY MOCLDY    73  70  90 S6        29.90F
MOLINE         CLOUDY    82  75  79 S12       29.86F
ROCKFORD       CLOUDY    72  68  87 CALM      29.90F
PEORIA         CLEAR     79  77  94 S8        29.91F
$$

NOTE: "FAIR" INDICATES FEW OR NO CLOUDS BELOW 12,000 FEET WITH NO
SIGNIFICANT WEATHER AND/OR OBSTRUCTIONS TO VISIBILITY. WIND
SPEEDS ARE IN MILES-PER-HOUR.




USA.gov is the U.S. government's official web portal to all federal, state and local government web resources and services.